Location: Buchloe
(48.0161°N, 10.7316°E)
Time: 14:06:51
(UTC+02:00)

ISS - Pass Details

Date: 18 May 2018
Orbit: 402 x 407 km, 51.6° (Epoch: 25 May)

Event Time Altitude Azimuth Distance (km) Brightness Sun altitude
Exits shadow 01:48:24 52° 353° (N) 508 -3.1 -22.0°
Drops below altitude 10° 01:51:32 10° 65° (ENE) 1,457 -0.6 -22.0°
Sets 01:53:39 0° 71° (ENE) 2,318 0.4 -21.9°
